QPF
0.01 0.01 0.01 0.02 0.04 0.06 0.06 0.06 0.07 0.07 0.06 0.07 0.11 0.12 0.09 0.09 0.10 0.10 0.12 0.13 0.16 0.18 0.18 0.18 0.18 0.20 0.23 0.24 0.24 0.24 0.22 0.17 0.12 0.09 0.07 0.05 0.05 0.06 0.07 0.07 0.07 0.07 0.07
0.00 0.01 0.01 0.02 0.03 0.03 0.03 0.04 0.04 0.03 0.03 0.05 0.08 0.08 0.07 0.07 0.08 0.12 0.15 0.13 0.12 0.15 0.16 0.16 0.18 0.18 0.18 0.20 0.20 0.22 0.22 0.21 0.17 0.13 0.11 0.08 0.06 0.06 0.07 0.09 0.10 0.10 0.07
0.00 0.00 0.00 0.01 0.01 0.01 0.01 0.01 0.01 0.01 0.03 0.04 0.04 0.05 0.05 0.05 0.05 0.08 0.10 0.13 0.12 0.11 0.12 0.12 0.14 0.14 0.13 0.14 0.15 0.16 0.17 0.18 0.17 0.15 0.13 0.11 0.10 0.09 0.09 0.10 0.12 0.13 0.12
0.00 0.00 0.00 0.00 0.00 0.00 0.00 0.00 0.00 0.00 0.01 0.02 0.02 0.03 0.03 0.04 0.03 0.03 0.06 0.11 0.13 0.13 0.10 0.08 0.10 0.09 0.08 0.10 0.11 0.13 0.14 0.14 0.16 0.15 0.14 0.12 0.11 0.12 0.12 0.12 0.13 0.12 0.13
0.00 0.00 0.00 0.00 0.00 0.00 0.00 0.00 0.00 0.00 0.00 0.01 0.02 0.01 0.02 0.03 0.03 0.01 0.02 0.05 0.08 0.11 0.11 0.08 0.07 0.07 0.07 0.07 0.08 0.10 0.13 0.13 0.14 0.15 0.13 0.11 0.11 0.13 0.14 0.13 0.13 0.14 0.15
0.00 0.00 0.00 0.00 0.00 0.00 0.00 0.00 0.00 0.00 0.00 0.01 0.01 0.01 0.01 0.01 0.02 0.02 0.02 0.02 0.02 0.04 0.09 0.10 0.06 0.04 0.05 0.06 0.06 0.07 0.09 0.10 0.10 0.11 0.10 0.09 0.10 0.10 0.12 0.13 0.13 0.14 0.16
0.00 0.00 0.00 0.00 0.00 0.00 0.00 0.00 0.00 0.00 0.00 0.01 0.01 0.01 0.01 0.01 0.03 0.03 0.02 0.02 0.02 0.02 0.04 0.07 0.05 0.04 0.06 0.06 0.06 0.06 0.05 0.06 0.08 0.09 0.07 0.05 0.06 0.07 0.09 0.10 0.12 0.14 0.14
0.00 0.00 0.00 0.00 0.00 0.00 0.00 0.00 0.00 0.00 0.00 0.00 0.00 0.00 0.00 0.01 0.03 0.02 0.01 0.01 0.02 0.02 0.05 0.08 0.05 0.04 0.07 0.08 0.07 0.06 0.05 0.04 0.04 0.05 0.06 0.06 0.07 0.08 0.08 0.09 0.12 0.15 0.15
0.00 0.00 0.00 0.00 0.00 0.00 0.00 0.00 0.00 0.00 0.00 0.00 0.00 0.00 0.00 0.01 0.02 0.02 0.01 0.01 0.01 0.01 0.04 0.06 0.06 0.03 0.05 0.07 0.06 0.04 0.03 0.03 0.03 0.03 0.05 0.06 0.07 0.10 0.09 0.08 0.10 0.11 0.15
0.00 0.00 0.00 0.00 0.00 0.00 0.00 0.00 0.00 0.00 0.00 0.00 0.00 0.00 0.00 0.00 0.02 0.02 0.01 0.01 0.02 0.03 0.04 0.04 0.04 0.04 0.04 0.05 0.05 0.03 0.03 0.03 0.02 0.03 0.04 0.04 0.06 0.07 0.09 0.10 0.09 0.09 0.10
0.00 0.00 0.00 0.00 0.00 0.00 0.00 0.00 0.00 0.00 0.00 0.00 0.00 0.00 0.00 0.00 0.01 0.01 0.01 0.01 0.02 0.04 0.05 0.03 0.03 0.04 0.04 0.05 0.06 0.05 0.03 0.03 0.03 0.04 0.03 0.03 0.04 0.04 0.05 0.07 0.07 0.07 0.07
0.00 0.00 0.00 0.00 0.00 0.00 0.00 0.00 0.00 0.00 0.00 0.00 0.00 0.00 0.00 0.00 0.00 0.00 0.00 0.01 0.02 0.04 0.06 0.05 0.04 0.03 0.04 0.05 0.06 0.05 0.04 0.03 0.04 0.04 0.04 0.03 0.03 0.03 0.03 0.05 0.06 0.06 0.05
0.00 0.00 0.00 0.00 0.00 0.00 0.00 0.00 0.00 0.00 0.00 0.00 0.00 0.00 0.00 0.00 0.00 0.00 0.00 0.01 0.01 0.02 0.03 0.04 0.03 0.03 0.04 0.05 0.05 0.05 0.05 0.05 0.04 0.05 0.04 0.04 0.04 0.03 0.03 0.03 0.04 0.04 0.04
0.00 0.00 0.00 0.00 0.00 0.00 0.00 0.00 0.00 0.00 0.00 0.00 0.00 0.00 0.00 0.00 0.00 0.00 0.00 0.00 0.01 0.01 0.01 0.02 0.02 0.03 0.03 0.03 0.03 0.03 0.04 0.05 0.04 0.03 0.03 0.03 0.03 0.03 0.03 0.02 0.01 0.01 0.02
0.00 0.00 0.00 0.00 0.00 0.00 0.00 0.00 0.00 0.00 0.00 0.00 0.00 0.00 0.00 0.00 0.00 0.00 0.00 0.00 0.00 0.01 0.01 0.01 0.01 0.02 0.03 0.02 0.01 0.01 0.02 0.03 0.03 0.03 0.02 0.02 0.02 0.02 0.02 0.02 0.01 0.01 0.01
0.00 0.00 0.00 0.00 0.00 0.00 0.00 0.00 0.00 0.00 0.00 0.00 0.00 0.00 0.00 0.00 0.00 0.00 0.00 0.00 0.00 0.00 0.00 0.00 0.01 0.01 0.02 0.01 0.01 0.01 0.01 0.01 0.02 0.03 0.02 0.01 0.01 0.02 0.02 0.01 0.01 0.01 0.00
0.00 0.00 0.00 0.00 0.00 0.00 0.00 0.00 0.00 0.00 0.00 0.00 0.00 0.00 0.00 0.00 0.00 0.00 0.00 0.00 0.00 0.00 0.00 0.00 0.00 0.00 0.00 0.00 0.00 0.00 0.01 0.01 0.01 0.02 0.01 0.01 0.01 0.01 0.02 0.02 0.02 0.01 0.00
0.00 0.00 0.00 0.00 0.00 0.00 0.00 0.00 0.00 0.00 0.00 0.00 0.00 0.00 0.00 0.00 0.00 0.00 0.00 0.00 0.00 0.00 0.00 0.00 0.00 0.00 0.00 0.00 0.00 0.00 0.00 0.00 0.01 0.00 0.00 0.00 0.00 0.00 0.01 0.01 0.01 0.01 0.00
0.00 0.00 0.00 0.00 0.00 0.00 0.00 0.00 0.00 0.00 0.00 0.00 0.00 0.00 0.00 0.00 0.00 0.00 0.00 0.00 0.00 0.00 0.00 0.00 0.00 0.00 0.00 0.00 0.00 0.00 0.00 0.00 0.00 0.00 0.00 0.00 0.00 0.00 0.00 0.01 0.01 0.01 0.00
0.00 0.00 0.00 0.00 0.00 0.00 0.00 0.00 0.00 0.00 0.00 0.00 0.00 0.00 0.00 0.00 0.00 0.00 0.00 0.00 0.00 0.00 0.00 0.00 0.00 0.00 0.00 0.00 0.00 0.00 0.00 0.00 0.00 0.00 0.00 0.00 0.00 0.00 0.00 0.00 0.00 0.00 0.00
0.00 0.00 0.00 0.00 0.00 0.00 0.00 0.00 0.00 0.00 0.00 0.00 0.00 0.00 0.00 0.00 0.00 0.00 0.00 0.00 0.00 0.00 0.00 0.00 0.00 0.00 0.00 0.00 0.00 0.00 0.00 0.00 0.00 0.00 0.00 0.00 0.00 0.00 0.00 0.00 0.00 0.00 0.00
0.00 0.00 0.00 0.00 0.00 0.00 0.00 0.00 0.00 0.00 0.00 0.00 0.00 0.00 0.00 0.00 0.00 0.00 0.00 0.00 0.00 0.00 0.00 0.00 0.00 0.00 0.00 0.00 0.00 0.00 0.00 0.00 0.00 0.00 0.00 0.00 0.00 0.00 0.00 0.00 0.00 0.00 0.00
0.00 0.00 0.00 0.00 0.00 0.00 0.00 0.00 0.00 0.00 0.00 0.00 0.00 0.00 0.00 0.00 0.00 0.00 0.00 0.00 0.00 0.00 0.00 0.00 0.00 0.00 0.00 0.00 0.00 0.00 0.00 0.00 0.00 0.00 0.00 0.00 0.00 0.00 0.00 0.00 0.00 0.00 0.00
0.00 0.00 0.00 0.00 0.00 0.00 0.00 0.00 0.00 0.00 0.00 0.00 0.00 0.00 0.00 0.00 0.00 0.00 0.00 0.00 0.00 0.00 0.00 0.00 0.00 0.00 0.00 0.00 0.00 0.00 0.00 0.00 0.00 0.00 0.00 0.00 0.00 0.00 0.00 0.00 0.00 0.00 0.00
0.00 0.00 0.00 0.00 0.00 0.00 0.00 0.00 0.00 0.00 0.00 0.00 0.00 0.00 0.00 0.00 0.00 0.00 0.00 0.00 0.00 0.00 0.00 0.00 0.00 0.00 0.00 0.00 0.00 0.00 0.00 0.00 0.00 0.00 0.00 0.00 0.00 0.00 0.00 0.00 0.00 0.00 0.00
0.00 0.00 0.00 0.00 0.00 0.00 0.00 0.00 0.00 0.00 0.00 0.00 0.00 0.00 0.00 0.00 0.00 0.00 0.00 0.00 0.00 0.00 0.00 0.00 0.00 0.00 0.00 0.00 0.00 0.00 0.00 0.00 0.00 0.00 0.00 0.00 0.00 0.00 0.00 0.00 0.00 0.00 0.00
MSLP
1017.19 1017.08 1016.97 1016.84 1016.65 1016.39 1016.05 1015.65 1015.20 1014.71 1014.20 1013.69 1013.17 1012.65 1012.13 1011.62 1011.14 1010.69 1010.30 1009.99 1009.77 1009.64 1009.61 1009.66 1009.78 1009.97 1010.19 1010.46 1010.77 1011.13 1011.52 1011.95 1012.40 1012.88 1013.34 1013.77 1014.15 1014.47 1014.73 1014.95 1015.14 1015.33 1015.56
1017.27 1017.16 1017.06 1016.92 1016.73 1016.48 1016.15 1015.76 1015.32 1014.84 1014.35 1013.84 1013.33 1012.81 1012.30 1011.79 1011.29 1010.84 1010.42 1010.08 1009.80 1009.61 1009.49 1009.45 1009.46 1009.54 1009.67 1009.86 1010.11 1010.42 1010.80 1011.24 1011.74 1012.27 1012.81 1013.33 1013.81 1014.23 1014.59 1014.89 1015.15 1015.39 1015.65
1017.38 1017.29 1017.19 1017.05 1016.84 1016.57 1016.24 1015.84 1015.41 1014.94 1014.45 1013.96 1013.45 1012.95 1012.44 1011.94 1011.45 1011.00 1010.58 1010.22 1009.93 1009.70 1009.53 1009.41 1009.35 1009.34 1009.38 1009.48 1009.64 1009.88 1010.21 1010.62 1011.12 1011.67 1012.26 1012.85 1013.41 1013.93 1014.39 1014.79 1015.14 1015.46 1015.77
1017.50 1017.44 1017.34 1017.19 1016.97 1016.68 1016.32 1015.92 1015.48 1015.02 1014.54 1014.05 1013.56 1013.07 1012.57 1012.08 1011.61 1011.17 1010.77 1010.41 1010.12 1009.88 1009.68 1009.53 1009.41 1009.33 1009.29 1009.29 1009.37 1009.52 1009.77 1010.12 1010.57 1011.10 1011.69 1012.32 1012.95 1013.55 1014.10 1014.61 1015.07 1015.49 1015.87
1017.60 1017.57 1017.48 1017.32 1017.08 1016.77 1016.41 1016.00 1015.57 1015.11 1014.65 1014.17 1013.69 1013.21 1012.72 1012.24 1011.78 1011.35 1010.96 1010.63 1010.34 1010.10 1009.91 1009.74 1009.59 1009.46 1009.35 1009.28 1009.26 1009.31 1009.46 1009.72 1010.10 1010.57 1011.14 1011.77 1012.43 1013.09 1013.73 1014.34 1014.90 1015.42 1015.90
1017.65 1017.65 1017.57 1017.41 1017.17 1016.86 1016.49 1016.10 1015.68 1015.24 1014.80 1014.34 1013.88 1013.41 1012.93 1012.45 1012.00 1011.57 1011.19 1010.87 1010.59 1010.36 1010.17 1009.99 1009.83 1009.67 1009.51 1009.37 1009.27 1009.23 1009.28 1009.44 1009.73 1010.13 1010.65 1011.26 1011.92 1012.62 1013.32 1014.01 1014.66 1015.28 1015.85
1017.64 1017.66 1017.59 1017.43 1017.20 1016.90 1016.56 1016.20 1015.81 1015.42 1015.01 1014.59 1014.15 1013.69 1013.22 1012.75 1012.29 1011.86 1011.48 1011.14 1010.87 1010.64 1010.45 1010.27 1010.09 1009.91 1009.72 1009.53 1009.36 1009.25 1009.22 1009.29 1009.49 1009.82 1010.28 1010.84 1011.49 1012.20 1012.94 1013.68 1014.40 1015.09 1015.74
1017.55 1017.58 1017.52 1017.37 1017.16 1016.90 1016.60 1016.29 1015.96 1015.63 1015.28 1014.91 1014.51 1014.08 1013.62 1013.15 1012.68 1012.24 1011.83 1011.48 1011.19 1010.95 1010.74 1010.55 1010.37 1010.17 1009.96 1009.74 1009.53 1009.37 1009.28 1009.29 1009.42 1009.69 1010.09 1010.61 1011.23 1011.93 1012.67 1013.42 1014.18 1014.92 1015.62
1017.39 1017.41 1017.36 1017.23 1017.05 1016.83 1016.60 1016.36 1016.11 1015.86 1015.58 1015.28 1014.93 1014.53 1014.09 1013.63 1013.15 1012.69 1012.26 1011.88 1011.56 1011.30 1011.07 1010.86 1010.66 1010.45 1010.23 1010.00 1009.78 1009.60 1009.48 1009.45 1009.55 1009.77 1010.13 1010.61 1011.19 1011.86 1012.58 1013.32 1014.08 1014.82 1015.54
1017.16 1017.18 1017.13 1017.02 1016.87 1016.71 1016.54 1016.38 1016.22 1016.06 1015.87 1015.63 1015.35 1014.99 1014.59 1014.13 1013.66 1013.19 1012.74 1012.34 1011.99 1011.69 1011.44 1011.22 1011.01 1010.79 1010.56 1010.34 1010.12 1009.94 1009.83 1009.80 1009.88 1010.08 1010.41 1010.85 1011.40 1012.02 1012.70 1013.40 1014.12 1014.83 1015.52
1016.88 1016.89 1016.83 1016.74 1016.64 1016.53 1016.43 1016.35 1016.27 1016.19 1016.08 1015.92 1015.69 1015.39 1015.02 1014.60 1014.14 1013.68 1013.23 1012.81 1012.45 1012.13 1011.87 1011.62 1011.40 1011.19 1010.97 1010.76 1010.57 1010.41 1010.31 1010.30 1010.39 1010.59 1010.91 1011.33 1011.83 1012.40 1013.02 1013.66 1014.30 1014.95 1015.59
1016.55 1016.55 1016.50 1016.43 1016.36 1016.29 1016.25 1016.24 1016.23 1016.21 1016.17 1016.07 1015.90 1015.65 1015.33 1014.95 1014.53 1014.09 1013.66 1013.26 1012.90 1012.59 1012.32 1012.08 1011.85 1011.65 1011.45 1011.26 1011.10 1010.97 1010.91 1010.93 1011.04 1011.25 1011.56 1011.96 1012.42 1012.94 1013.49 1014.05 1014.61 1015.17 1015.72
1016.17 1016.16 1016.12 1016.08 1016.03 1016.01 1016.01 1016.04 1016.08 1016.10 1016.10 1016.05 1015.93 1015.73 1015.46 1015.13 1014.76 1014.37 1013.99 1013.63 1013.30 1013.01 1012.76 1012.54 1012.33 1012.15 1011.97 1011.81 1011.68 1011.60 1011.57 1011.62 1011.76 1011.98 1012.29 1012.66 1013.09 1013.55 1014.03 1014.51 1014.98 1015.45 1015.91
1015.72 1015.72 1015.70 1015.68 1015.67 1015.68 1015.71 1015.76 1015.81 1015.86 1015.88 1015.85 1015.76 1015.60 1015.38 1015.11 1014.80 1014.48 1014.17 1013.87 1013.60 1013.36 1013.15 1012.97 1012.79 1012.64 1012.49 1012.37 1012.28 1012.22 1012.23 1012.31 1012.46 1012.69 1012.99 1013.35 1013.74 1014.15 1014.57 1014.97 1015.37 1015.75 1016.13
1015.17 1015.19 1015.21 1015.22 1015.24 1015.28 1015.33 1015.39 1015.45 1015.49 1015.51 1015.48 1015.40 1015.27 1015.10 1014.88 1014.65 1014.41 1014.17 1013.95 1013.76 1013.59 1013.44 1013.31 1013.18 1013.06 1012.96 1012.87 1012.81 1012.79 1012.82 1012.92 1013.09 1013.32 1013.61 1013.94 1014.30 1014.68 1015.04 1015.40 1015.73 1016.05 1016.37
1014.52 1014.57 1014.62 1014.67 1014.73 1014.79 1014.85 1014.92 1014.97 1015.01 1015.01 1014.98 1014.91 1014.80 1014.66 1014.50 1014.33 1014.16 1014.01 1013.88 1013.77 1013.67 1013.59 1013.52 1013.45 1013.38 1013.31 1013.26 1013.23 1013.24 1013.29 1013.40 1013.58 1013.81 1014.09 1014.40 1014.74 1015.09 1015.42 1015.74 1016.05 1016.33 1016.61
1013.75 1013.84 1013.92 1014.01 1014.10 1014.19 1014.28 1014.35 1014.41 1014.43 1014.43 1014.39 1014.33 1014.23 1014.13 1014.01 1013.90 1013.81 1013.73 1013.68 1013.64 1013.62 1013.60 1013.59 1013.57 1013.54 1013.52 1013.50 1013.51 1013.54 1013.61 1013.74 1013.91 1014.14 1014.41 1014.72 1015.05 1015.38 1015.70 1016.01 1016.30 1016.58 1016.84
1012.88 1012.99 1013.10 1013.23 1013.35 1013.48 1013.59 1013.67 1013.74 1013.77 1013.77 1013.75 1013.69 1013.63 1013.55 1013.49 1013.43 1013.39 1013.38 1013.39 1013.41 1013.44 1013.48 1013.51 1013.54 1013.56 1013.57 1013.59 1013.63 1013.69 1013.78 1013.92 1014.11 1014.34 1014.61 1014.91 1015.23 1015.56 1015.88 1016.19 1016.49 1016.78 1017.05
1011.96 1012.05 1012.17 1012.32 1012.47 1012.62 1012.76 1012.88 1012.97 1013.02 1013.05 1013.05 1013.03 1013.00 1012.97 1012.95 1012.94 1012.95 1012.98 1013.03 1013.10 1013.17 1013.24 1013.31 1013.37 1013.43 1013.48 1013.53 1013.60 1013.69 1013.81 1013.97 1014.17 1014.40 1014.68 1014.98 1015.30 1015.63 1015.97 1016.29 1016.61 1016.91 1017.20
1011.02 1011.08 1011.18 1011.32 1011.48 1011.65 1011.81 1011.96 1012.08 1012.17 1012.25 1012.29 1012.32 1012.34 1012.36 1012.39 1012.43 1012.48 1012.55 1012.63 1012.72 1012.81 1012.91 1013.00 1013.09 1013.17 1013.25 1013.33 1013.44 1013.56 1013.71 1013.89 1014.11 1014.36 1014.64 1014.95 1015.28 1015.61 1015.96 1016.29 1016.62 1016.94 1017.25
1010.17 1010.15 1010.19 1010.29 1010.42 1010.58 1010.75 1010.92 1011.07 1011.21 1011.33 1011.44 1011.53 1011.61 1011.69 1011.78 1011.86 1011.96 1012.06 1012.16 1012.27 1012.37 1012.48 1012.58 1012.69 1012.79 1012.90 1013.02 1013.16 1013.32 1013.50 1013.71 1013.95 1014.22 1014.51 1014.83 1015.16 1015.49 1015.84 1016.18 1016.53 1016.86 1017.17
1009.46 1009.33 1009.28 1009.29 1009.37 1009.48 1009.63 1009.79 1009.96 1010.13 1010.29 1010.45 1010.61 1010.76 1010.91 1011.05 1011.19 1011.32 1011.45 1011.58 1011.70 1011.82 1011.94 1012.05 1012.17 1012.30 1012.44 1012.59 1012.76 1012.96 1013.18 1013.42 1013.69 1013.97 1014.27 1014.59 1014.92 1015.26 1015.61 1015.95 1016.29 1016.62 1016.94
1008.98 1008.71 1008.53 1008.43 1008.40 1008.43 1008.51 1008.63 1008.77 1008.94 1009.13 1009.33 1009.53 1009.73 1009.94 1010.14 1010.33 1010.51 1010.67 1010.83 1010.97 1011.11 1011.24 1011.38 1011.52 1011.68 1011.85 1012.04 1012.25 1012.48 1012.74 1013.01 1013.30 1013.60 1013.92 1014.24 1014.57 1014.90 1015.24 1015.58 1015.91 1016.24 1016.56
1008.76 1008.34 1008.01 1007.77 1007.60 1007.51 1007.48 1007.51 1007.59 1007.71 1007.88 1008.07 1008.29 1008.53 1008.77 1009.01 1009.24 1009.47 1009.67 1009.86 1010.04 1010.21 1010.37 1010.54 1010.71 1010.91 1011.12 1011.35 1011.60 1011.88 1012.17 1012.47 1012.78 1013.11 1013.43 1013.76 1014.09 1014.42 1014.75 1015.08 1015.41 1015.73 1016.05
1008.82 1008.26 1007.78 1007.37 1007.04 1006.79 1006.62 1006.52 1006.48 1006.52 1006.61 1006.76 1006.95 1007.18 1007.43 1007.68 1007.94 1008.19 1008.44 1008.66 1008.88 1009.09 1009.30 1009.51 1009.73 1009.97 1010.23 1010.51 1010.81 1011.13 1011.46 1011.79 1012.13 1012.47 1012.81 1013.15 1013.48 1013.81 1014.14 1014.47 1014.80 1015.13 1015.44
1009.13 1008.45 1007.82 1007.26 1006.77 1006.35 1006.00 1005.74 1005.56 1005.45 1005.43 1005.49 1005.60 1005.77 1005.98 1006.22 1006.48 1006.75 1007.01 1007.27 1007.53 1007.78 1008.04 1008.31 1008.59 1008.89 1009.20 1009.53 1009.88 1010.25 1010.61 1010.98 1011.35 1011.72 1012.07 1012.42 1012.77 1013.11 1013.45 1013.79 1014.13 1014.46 1014.78
Thickness
5636 5635 5633 5632 5631 5630 5630 5629 5630 5631 5633 5635 5638 5640 5643 5647 5650 5654 5659 5663 5666 5670 5673 5676 5678 5680 5682 5684 5685 5688 5688 5689 5688 5689 5693 5695 5697 5699 5700 5701 5701 5701 5701
5636 5634 5632 5630 5629 5628 5627 5626 5627 5627 5628 5629 5631 5633 5636 5639 5642 5646 5650 5655 5658 5661 5664 5667 5670 5672 5674 5677 5679 5681 5682 5683 5683 5682 5684 5686 5688 5691 5692 5692 5692 5693 5693
5638 5635 5632 5630 5628 5626 5625 5624 5624 5624 5624 5624 5625 5627 5629 5632 5635 5638 5642 5646 5650 5652 5656 5658 5661 5665 5666 5670 5672 5673 5675 5677 5678 5678 5677 5679 5680 5681 5682 5683 5683 5683 5683
5639 5636 5632 5629 5627 5625 5624 5622 5621 5620 5620 5620 5620 5621 5623 5626 5629 5632 5636 5639 5642 5644 5647 5650 5654 5657 5660 5663 5664 5666 5668 5669 5670 5671 5671 5671 5672 5672 5673 5673 5672 5673 5672
5641 5637 5634 5631 5628 5626 5623 5621 5619 5618 5617 5616 5616 5617 5619 5621 5624 5627 5630 5633 5634 5637 5640 5643 5647 5651 5654 5657 5658 5659 5660 5662 5663 5665 5665 5665 5665 5665 5665 5666 5665 5663 5662
5644 5640 5636 5633 5630 5626 5623 5621 5619 5617 5615 5614 5613 5613 5614 5617 5620 5623 5624 5626 5628 5631 5633 5636 5640 5644 5647 5651 5653 5654 5656 5657 5658 5659 5659 5660 5660 5661 5660 5660 5658 5656 5653
5646 5643 5639 5635 5631 5627 5625 5621 5618 5616 5614 5612 5610 5610 5610 5612 5615 5618 5619 5620 5622 5624 5627 5629 5634 5637 5640 5643 5646 5648 5650 5653 5656 5656 5656 5656 5656 5657 5656 5654 5652 5651 5649
5649 5645 5641 5637 5634 5630 5626 5622 5619 5616 5613 5611 5609 5607 5608 5609 5612 5614 5614 5615 5617 5619 5621 5624 5628 5631 5635 5637 5640 5641 5643 5646 5649 5651 5652 5652 5653 5653 5653 5651 5647 5644 5641
5652 5648 5644 5640 5636 5632 5628 5624 5621 5617 5614 5611 5609 5607 5606 5607 5609 5610 5611 5611 5612 5614 5617 5620 5623 5626 5630 5633 5635 5635 5637 5640 5643 5645 5646 5647 5648 5648 5647 5644 5640 5639 5634
5656 5652 5648 5644 5640 5635 5631 5627 5623 5619 5616 5614 5611 5608 5606 5606 5608 5609 5609 5608 5609 5611 5613 5616 5620 5623 5626 5628 5630 5631 5632 5634 5637 5638 5639 5640 5640 5640 5641 5641 5639 5636 5632
5660 5655 5651 5647 5643 5639 5635 5631 5627 5623 5619 5616 5613 5610 5608 5607 5608 5609 5609 5608 5608 5609 5611 5613 5617 5620 5623 5625 5626 5628 5629 5630 5631 5632 5632 5632 5632 5633 5633 5633 5633 5633 5630
5663 5658 5654 5651 5647 5644 5639 5635 5630 5626 5622 5619 5616 5614 5611 5610 5609 5610 5611 5610 5610 5609 5610 5611 5614 5618 5620 5622 5623 5624 5625 5626 5626 5627 5626 5626 5626 5626 5626 5626 5626 5626 5626
5665 5661 5658 5654 5650 5646 5642 5638 5634 5630 5626 5622 5619 5616 5614 5613 5612 5613 5613 5612 5612 5611 5611 5612 5614 5616 5617 5618 5620 5621 5622 5622 5622 5621 5620 5620 5619 5619 5620 5620 5619 5619 5619
5668 5664 5660 5657 5653 5649 5645 5642 5637 5634 5630 5627 5623 5620 5618 5616 5615 5615 5614 5614 5614 5613 5613 5613 5614 5614 5615 5616 5617 5617 5618 5618 5619 5618 5616 5615 5616 5615 5615 5615 5614 5614 5612
5671 5668 5664 5660 5656 5653 5649 5645 5643 5639 5635 5632 5629 5625 5622 5620 5620 5619 5617 5617 5616 5615 5615 5614 5613 5613 5613 5613 5614 5614 5615 5615 5615 5614 5613 5613 5612 5612 5611 5610 5610 5609 5607
5674 5670 5667 5663 5659 5656 5652 5650 5648 5645 5643 5640 5637 5632 5629 5627 5625 5624 5623 5622 5621 5620 5617 5614 5613 5612 5612 5613 5613 5612 5612 5612 5612 5612 5612 5611 5610 5610 5608 5607 5606 5605 5604
5677 5675 5670 5666 5663 5659 5655 5652 5650 5649 5648 5645 5643 5640 5636 5633 5631 5629 5627 5625 5624 5623 5619 5616 5614 5613 5613 5613 5613 5613 5612 5612 5612 5611 5611 5610 5609 5607 5606 5605 5603 5602 5600
5681 5678 5674 5670 5666 5662 5659 5656 5653 5650 5648 5647 5647 5645 5642 5639 5636 5633 5630 5628 5625 5623 5621 5619 5617 5616 5615 5614 5614 5613 5613 5612 5611 5611 5610 5609 5608 5607 5605 5603 5602 5601 5599
5682 5679 5676 5673 5669 5665 5662 5658 5655 5652 5650 5649 5647 5646 5645 5642 5639 5636 5633 5629 5627 5625 5623 5621 5620 5619 5617 5616 5616 5615 5614 5613 5612 5611 5610 5609 5608 5607 5605 5603 5602 5600 5599
5683 5682 5679 5674 5670 5666 5663 5660 5657 5655 5652 5650 5649 5648 5646 5642 5639 5638 5635 5632 5630 5628 5627 5625 5623 5622 5620 5619 5617 5616 5615 5614 5613 5612 5611 5609 5608 5607 5606 5604 5602 5600 5599
5682 5681 5679 5675 5670 5668 5665 5662 5660 5658 5656 5654 5654 5653 5649 5645 5644 5642 5639 5636 5635 5633 5631 5629 5627 5625 5624 5622 5620 5618 5617 5615 5614 5612 5611 5610 5608 5607 5606 5605 5603 5601 5600
5678 5678 5676 5674 5671 5668 5666 5664 5661 5659 5658 5656 5656 5654 5652 5648 5646 5645 5643 5642 5640 5639 5637 5634 5631 5630 5628 5625 5623 5621 5619 5617 5615 5614 5612 5611 5609 5608 5606 5604 5603 5601 5599
5671 5671 5671 5671 5670 5668 5666 5663 5661 5659 5658 5657 5656 5654 5652 5649 5648 5647 5647 5646 5644 5642 5640 5637 5635 5633 5631 5629 5627 5625 5622 5620 5619 5617 5614 5612 5610 5608 5606 5605 5603 5601 5599
5661 5663 5664 5665 5664 5663 5662 5661 5660 5659 5657 5656 5655 5654 5653 5652 5651 5650 5649 5648 5646 5645 5642 5640 5638 5636 5634 5632 5629 5627 5626 5624 5621 5619 5616 5614 5611 5609 5607 5604 5603 5602 5600
5647 5651 5653 5655 5656 5657 5657 5657 5657 5656 5656 5655 5654 5653 5652 5652 5651 5651 5650 5649 5647 5645 5644 5642 5640 5638 5637 5634 5632 5630 5628 5625 5622 5620 5617 5614 5611 5609 5607 5604 5602 5601 5599
5630 5634 5638 5641 5644 5646 5648 5649 5650 5651 5651 5652 5652 5652 5651 5650 5650 5650 5649 5648 5646 5645 5644 5643 5641 5640 5638 5636 5634 5631 5629 5626 5622 5619 5616 5613 5610 5608 5606 5603 5602 5599 5598